STARLINK-11742 [DTC]

Last updated on Thu Jul 03 2025 00:02:06 GMT+0000 (Coordinated Universal Time)

1 64377U 25127H 25183.58335648 -.00944613 00000+0 -56659-2 0 9996 2 64377 43.0019 154.6808 0001226 283.7635 246.2806 15.79327994 4090
UTC large
Height (km)
Speed (km/s)
/
Latitude / Longitude
Inclination (degrees)
Orbital Period (minutes)
Azimuth
Elevation
Range (km)
Doppler Factor

Next 0 passes for location: London (51.5072 / 0.1276)

Sorry there are no passes over London.